Weather History for Rotterdam, Netherlands

Change the Weather History Date:

Friday, July 26, 2013

  Actual Average Record
Temperature  
Mean Temperature 70 °F -  
Max Temperature 79 °F 70 °F 91 °F (2006)
Min Temperature 62 °F 55 °F 48 °F (1996)
Cooling Degree Days 6    
Growing Degree Days 20 (Base 50)    
Moisture  
Dew Point 65 °F    
Average Humidity 84    
Maximum Humidity 100    
Minimum Humidity 63    
Precipitation  
Precipitation 0.20 in - - ()
Sea Level Pressure  
Sea Level Pressure 29.91 in    
Wind  
Wind Speed 3 mph ()    
Max Wind Speed 8 mph    
Max Gust Speed -    
Visibility 6.9 miles    
Events Rain , Thunderstorm    
Averages and records for this station are not official NWS values.
T = Trace of Precipitation, MM = Missing Value Source: Averaged Metar Reports

Daily Weather History Graph

Daily Weather History Graph

Search for Another Location

Airport:

Trip Planner

Search our weather history database for the weather conditions in past years. The results will help you decide how hot, cold, wet, or windy it might be!

Date:

Astronomy

Jul. 26, 2013 Rise Set
Actual Time 5:55 AM CEST 9:41 PM CEST
Civil Twilight 5:12 AM CEST 10:23 PM CEST
Nautical Twilight 4:13 AM CEST 11:22 PM CEST
Astronomical Twilight 2:31 AM CEST 12:59 AM CEST
Moon 11:02 PM CEST (7/26) 10:55 AM CEST (7/26)
Length of Visible Light 17h 11m
Length of Day
15h 45m
Waning Gibbous, 82% of the Moon is Illuminated
Jul 26
Waning Gibbous
Jul 29
Last Quarter
Aug 6
New
Aug 14
First Quarter
Aug 21
Full

Hourly Weather History & Observations

Time (CEST) Temp. Dew Point Humidity Pressure Visibility Wind Dir Wind Speed Gust Speed Precip Events Conditions
12:25 AM 66.2 °F 60.8 °F 83% 29.95 in 6.2 mi West 4.6 mph - N/A   Unknown
12:55 AM 64.4 °F 62.6 °F 94% 29.98 in 6.2 mi Variable 1.2 mph - N/A   Scattered Clouds
1:25 AM 64.4 °F 62.6 °F 94% 29.98 in 6.2 mi ENE 2.3 mph - N/A   Unknown
1:55 AM 64.4 °F 62.6 °F 94% 29.95 in 6.2 mi East 1.2 mph - N/A   Unknown
2:00 AM 65 °F 63 °F 92% 29.97 in 18 mi Calm Calm - -   Partly Cloudy
2:25 AM 64.4 °F 62.6 °F 94% 29.95 in 6.2 mi ENE 1.2 mph - N/A   Unknown
2:55 AM 62.6 °F 62.6 °F 100% 29.95 in 6.2 mi East 2.3 mph - N/A   Unknown
3:25 AM 64.4 °F 62.6 °F 94% 29.95 in 6.2 mi Variable 2.3 mph - N/A   Unknown
3:55 AM 64.4 °F 62.6 °F 94% 29.95 in 6.2 mi Calm Calm - N/A   Unknown
4:25 AM 62.6 °F 60.8 °F 94% 29.92 in 6.2 mi Variable 1.2 mph - N/A   Unknown
4:55 AM 64.4 °F 62.6 °F 94% 29.95 in 6.2 mi ENE 1.2 mph - N/A   Light Drizzle
5:00 AM 65 °F 63 °F 91% 29.95 in 17 mi East 2.2 mph - - Rain Drizzle
5:25 AM 64.4 °F 64.4 °F 100% 29.92 in 6.2 mi NE 2.3 mph - N/A   Partly Cloudy
5:55 AM 64.4 °F 64.4 °F 100% 29.92 in 6.2 mi Variable 1.2 mph - N/A   Unknown
6:25 AM 64.4 °F 64.4 °F 100% 29.92 in 6.2 mi ENE 2.3 mph - N/A   Mostly Cloudy
6:55 AM 66.2 °F 64.4 °F 94% 29.92 in 6.2 mi North 3.5 mph - N/A   Partly Cloudy
7:25 AM 66.2 °F 64.4 °F 94% 29.92 in 6.2 mi NE 2.3 mph - N/A   Unknown
7:55 AM 68.0 °F 64.4 °F 88% 29.92 in 6.2 mi NNW 2.3 mph - N/A   Partly Cloudy
8:00 AM 68 °F 65 °F 87% 29.93 in 11 mi North 2.2 mph - -   Partly Cloudy
8:25 AM 69.8 °F 66.2 °F 88% 29.92 in 6.2 mi NNW 3.5 mph - N/A   Unknown
8:55 AM 71.6 °F 64.4 °F 78% 29.89 in 6.2 mi NNE 3.5 mph - N/A   Unknown
9:25 AM 71.6 °F 64.4 °F 78% 29.92 in 6.2 mi North 4.6 mph - N/A   Unknown
9:55 AM 71.6 °F 64.4 °F 78% 29.92 in 6.2 mi NNW 6.9 mph - N/A   Unknown
10:25 AM 69.8 °F 62.6 °F 78% 29.92 in 6.2 mi NNW 6.9 mph - N/A Thunderstorm Thunderstorm
10:55 AM 68.0 °F 60.8 °F 78% 29.92 in 6.2 mi North 5.8 mph - N/A   Partly Cloudy
11:00 AM 69 °F 60 °F 65% 29.92 in 17 mi North 6.7 mph - - Thunderstorm Light Thunderstorm
11:25 AM 68.0 °F 59.0 °F 73% 29.89 in 6.2 mi North 6.9 mph - N/A   Heavy Drizzle
11:55 AM 68.0 °F 62.6 °F 83% 29.92 in 6.2 mi Variable 4.6 mph - N/A Rain Light Rain
12:25 PM 66.2 °F 62.6 °F 88% 29.92 in 6.2 mi Variable 2.3 mph - N/A Rain , Thunderstorm Light Thunderstorms and Rain
12:55 PM 66.2 °F 64.4 °F 94% 29.92 in 6.2 mi North 4.6 mph - N/A Rain Light Rain Showers
1:25 PM 68.0 °F 64.4 °F 88% 29.89 in 6.2 mi NE 6.9 mph - N/A   Unknown
1:55 PM 69.8 °F 66.2 °F 88% 29.89 in 6.2 mi NE 6.9 mph - N/A   Unknown
2:00 PM 71 °F 67 °F 82% 29.90 in 11 mi NE 6.7 mph - - Rain Rain
2:25 PM 73.4 °F 68.0 °F 83% 29.89 in 6.2 mi ENE 4.6 mph - N/A   Partly Cloudy
2:55 PM 75.2 °F 68.0 °F 78% 29.89 in 6.2 mi East 6.9 mph - N/A   Mostly Cloudy
3:25 PM 75.2 °F 68.0 °F 78% 29.89 in 6.2 mi Variable 2.3 mph - N/A   Mostly Cloudy
3:55 PM 77.0 °F 68.0 °F 74% 29.89 in 6.2 mi SE 3.5 mph - N/A   Partly Cloudy
4:25 PM 78.8 °F 68.0 °F 69% 29.89 in 6.2 mi ESE 4.6 mph - N/A   Mostly Cloudy
4:55 PM 78.8 °F 68.0 °F 69% 29.86 in 6.2 mi WSW 3.5 mph - N/A   Overcast
5:00 PM 77 °F 67 °F 63% 29.89 in 7 mi South 4.5 mph - -   Overcast
5:25 PM 77.0 °F 66.2 °F 69% 29.86 in 6.2 mi South 6.9 mph - N/A   Mostly Cloudy
5:55 PM 77.0 °F 66.2 °F 69% 29.86 in 6.2 mi SSW 8.1 mph - N/A   Mostly Cloudy
6:25 PM 78.8 °F 68.0 °F 69% 29.86 in 6.2 mi WSW 8.1 mph - N/A   Partly Cloudy
6:55 PM 75.2 °F 68.0 °F 78% 29.86 in 6.2 mi West 4.6 mph - N/A   Unknown
7:25 PM 75.2 °F 68.0 °F 78% 29.86 in 6.2 mi NW 3.5 mph - N/A   Unknown
7:55 PM 75.2 °F 68.0 °F 78% 29.86 in 6.2 mi North 3.5 mph - N/A   Unknown
8:00 PM 74 °F 67 °F 71% 29.89 in 7 mi North 2.2 mph - -   Partly Cloudy
8:25 PM 75.2 °F 66.2 °F 73% 29.86 in 6.2 mi North 3.5 mph - N/A   Unknown
8:55 PM 73.4 °F 66.2 °F 78% 29.86 in 6.2 mi NNW 3.5 mph - N/A   Mostly Cloudy
9:25 PM 71.6 °F 66.2 °F 83% 29.86 in 5.6 mi NNE 3.5 mph - N/A   Partly Cloudy
9:55 PM 71.6 °F 66.2 °F 83% 29.86 in 6.2 mi North 2.3 mph - N/A   Mostly Cloudy
10:25 PM 69.8 °F 66.2 °F 88% 29.89 in 5.6 mi Variable 2.3 mph - N/A   Overcast
10:55 PM 69.8 °F 66.2 °F 88% 29.86 in 5.6 mi NE 2.3 mph - N/A   Mostly Cloudy
11:00 PM 69 °F 66 °F 86% 29.88 in 5 mi NNE 2.2 mph - -   Mist
11:25 PM 69.8 °F 66.2 °F 88% 29.86 in 4.3 mi Variable 2.3 mph - N/A   Unknown
11:55 PM 68.0 °F 66.2 °F 94% 29.86 in 4.3 mi NNW 3.5 mph - N/A   Unknown